Regional Weather Roundup
Issued by NWS

Home | Current Version | Previous Version | Text Only | Print | Product List | Glossary Off
Versions: 1 2 3 4 5 6 7 8 9 10 11 12 13 14 15 16 17 18 19 20 21 22 23 24 25 26 27 28 29 30 31 32 33 34 35 36 37 38 39 40 41 42 43 44 45 46 47 48 49 50

000
ASUS43 KLSX 231707
RWRMO

WEATHER SUMMARY FOR MISSOURI
NATIONAL WEATHER SERVICE SPRINGFIELD MO
1200 PM CDT TUE SEP 23 2014

NOTE: "FAIR" INDICATES FEW OR NO CLOUDS BELOW 12,000 FEET WITH NO
       SIGNIFICANT WEATHER AND/OR OBSTRUCTIONS TO VISIBILITY.
       CURRENT SKY AND/OR WEATHER CONDITIONS ARE NOT AVAILABLE FOR
       CHILLICOTHE AND FARMINGTON.

MOZ001>031-035>038-043-044-053-054-231800-
...NORTHERN AND WESTERN MISSOURI...

CITY           SKY/WX    TMP DP  RH WIND       PRES   REMARKS
KANSAS CTY INT CLOUDY    70  55  59 SE15      30.22F
KANSAS C DTWN  PTSUNNY   72  53  51 S15       30.23F
LEE`S SUMMIT   PTSUNNY   69  53  56 S9G20     30.25F
ST JOSEPH      CLOUDY    70  54  56 S14       30.22F
CHILLICOTHE      N/A     71  55  56 S9        30.27F
KIRKSVILLE     CLOUDY    69  52  54 S10       30.30F

$$
MOZ066>068-077>081-088>096-101>105-231800-
...SOUTHWEST MISSOURI...

CITY           SKY/WX    TMP DP  RH WIND       PRES   REMARKS
SPRINGFIELD    SUNNY     69  45  41 SE7       30.29F
JOPLIN         MOSUNNY   71  52  50 S10       30.27F

$$
MOZ032>034-039>042-045>050-055>058-069>072-231800-
...CENTRAL MISSOURI...

CITY           SKY/WX    TMP DP  RH WIND       PRES   REMARKS
COLUMBIA       SUNNY     69  49  48 S12       30.31F
JEFFERSON CITY SUNNY     69  48  47 MISG      30.31F
ROLLA          SUNNY     68  47  46 S9        30.30F
SEDALIA        MOSUNNY   72  51  47 SE10      30.29F
WHITEMAN AFB   PTSUNNY   69  53  55 S9        30.28F
OSAGE BEACH    MOSUNNY   70  48  46 SE7       30.30F

$$
MOZ051-052-059>065-231800-
...EAST CENTRAL MISSOURI...

CITY           SKY/WX    TMP DP  RH WIND       PRES   REMARKS
ST LOUIS INTL  MOSUNNY   71  49  45 VRB6      30.34S
SPIRIT OF STL  MOSUNNY   68  49  50 SE6       30.32F
ST CHARLES     SUNNY     70  46  42 E7        30.32F

$$
MOZ072>076-082>087-097>100-106>115-231800-
...SOUTH CENTRAL AND SOUTHEAST MISSOURI...

CITY           SKY/WX    TMP DP  RH WIND       PRES   REMARKS
CAPE GIRARDEAU SUNNY     70  48  45 MISG      30.31F
FARMINGTON     SUNNY     68  48  49 SE6       30.35R
POPLAR BLUFF   SUNNY     69  45  41 NE7       30.29F
WEST PLAINS    SUNNY     67  45  45 SE7       30.33S

$$


USA.gov is the U.S. government's official web portal to all federal, state and local government web resources and services.